Time,TemperatureF,DewpointF,PressureIn,WindDirection,WindDirectionDegrees,WindSpeedMPH,WindSpeedGustMPH,Humidity,HourlyPrecipIn,Conditions,Clouds,dailyrainin,SolarRadiationWatts/m^2,SoftwareType,DateUTC
2013-03-12 00:00:00,34.0,32.0,-100.00,South,180,7.0,-999.0,93,0.01,,,-99.99,1.160000,,2013-03-12 04:00:00,
2013-03-12 00:43:00,34.0,32.0,-100.00,South,180,7.0,-999.0,93,0.01,,,-99.99,1.160000,,2013-03-12 04:43:00,
2013-03-12 00:52:00,34.0,32.0,-100.00,South,180,7.0,-999.0,93,0.01,,,-99.99,1.160000,,2013-03-12 04:52:00,
2013-03-12 02:00:00,34.0,31.0,-100.00,South,180,8.0,-999.0,92,0.01,,,-99.99,1.160000,,2013-03-12 06:00:00,
2013-03-12 02:32:00,34.0,31.0,-100.00,South,180,8.0,-999.0,92,0.01,,,-99.99,1.160000,,2013-03-12 06:32:00,
2013-03-12 02:42:00,34.0,31.0,-100.00,South,180,8.0,-999.0,92,0.01,,,-99.99,1.160000,,2013-03-12 06:42:00,
2013-03-12 02:52:00,34.0,31.0,-100.00,South,180,8.0,-999.0,92,0.01,,,-99.99,1.160000,,2013-03-12 06:52:00,
2013-03-12 03:00:00,33.0,31.0,-100.00,SSW,202,8.0,-999.0,92,-99.99,,,-99.99,1.160000,,2013-03-12 07:00:00,
2013-03-12 03:42:00,33.0,31.0,-100.00,SSW,202,8.0,-999.0,92,-99.99,,,-99.99,1.160000,,2013-03-12 07:42:00,
2013-03-12 03:52:00,33.0,31.0,-100.00,SSW,202,8.0,-999.0,92,-99.99,,,-99.99,1.160000,,2013-03-12 07:52:00,
2013-03-12 04:00:00,32.0,29.0,-100.00,SSW,202,8.0,-999.0,89,-99.99,,,-99.99,1.160000,,2013-03-12 08:00:00,
2013-03-12 04:42:00,32.0,29.0,-100.00,SSW,202,8.0,-999.0,89,-99.99,,,-99.99,1.160000,,2013-03-12 08:42:00,
2013-03-12 04:52:00,32.0,29.0,-100.00,SSW,202,8.0,-999.0,89,-99.99,,,-99.99,1.160000,,2013-03-12 08:52:00,
2013-03-12 05:00:00,32.0,27.0,-100.00,South,180,7.0,-999.0,81,-99.99,,,-99.99,1.160000,,2013-03-12 09:00:00,
2013-03-12 05:43:00,32.0,27.0,-100.00,South,180,7.0,-999.0,81,-99.99,,,-99.99,1.160000,,2013-03-12 09:43:00,
2013-03-12 05:52:00,32.0,27.0,-100.00,South,180,7.0,-999.0,81,-99.99,,,-99.99,1.160000,,2013-03-12 09:52:00,
2013-03-12 06:00:00,32.0,27.0,-100.00,SSW,202,0.0,-999.0,82,-99.99,,,-99.99,1.160000,,2013-03-12 10:00:00,
2013-03-12 06:42:00,32.0,27.0,-100.00,SSW,202,0.0,-999.0,82,-99.99,,,-99.99,1.160000,,2013-03-12 10:42:00,
2013-03-12 06:52:00,32.0,27.0,-100.00,SSW,202,0.0,-999.0,82,-99.99,,,-99.99,1.160000,,2013-03-12 10:52:00,
2013-03-12 07:00:00,31.0,25.0,-100.00,SSW,202,0.0,-999.0,80,-99.99,,,-99.99,0.000000,,2013-03-12 11:00:00,
2013-03-12 07:42:00,31.0,25.0,-100.00,SSW,202,0.0,-999.0,80,-99.99,,,-99.99,0.000000,,2013-03-12 11:42:00,
2013-03-12 07:52:00,31.0,25.0,-100.00,SSW,202,0.0,-999.0,80,-99.99,,,-99.99,0.000000,,2013-03-12 11:52:00,
2013-03-12 08:00:00,31.0,24.0,-100.00,SSW,202,0.0,-999.0,76,-99.99,,,-99.99,0.000000,,2013-03-12 12:00:00,
2013-03-12 08:42:00,31.0,24.0,-100.00,SSW,202,0.0,-999.0,76,-99.99,,,-99.99,0.000000,,2013-03-12 12:42:00,
2013-03-12 08:52:00,31.0,24.0,-100.00,SSW,202,0.0,-999.0,76,-99.99,,,-99.99,0.000000,,2013-03-12 12:52:00,
2013-03-12 09:00:00,31.0,25.0,-100.00,SSW,202,3.0,-999.0,77,-99.99,,,-99.99,9.280000,,2013-03-12 13:00:00,
2013-03-12 09:43:00,31.0,25.0,-100.00,SSW,202,3.0,-999.0,77,-99.99,,,-99.99,9.280000,,2013-03-12 13:43:00,
2013-03-12 09:52:00,31.0,25.0,-100.00,SSW,202,3.0,-999.0,77,-99.99,,,-99.99,9.280000,,2013-03-12 13:52:00,
2013-03-12 10:00:00,31.0,22.0,-100.00,SSW,202,9.0,-999.0,69,-99.99,,,-99.99,116.000000,,2013-03-12 14:00:00,
2013-03-12 10:43:00,31.0,22.0,-100.00,SSW,202,9.0,-999.0,69,-99.99,,,-99.99,116.000000,,2013-03-12 14:43:00,
2013-03-12 10:53:00,31.0,22.0,-100.00,SSW,202,9.0,-999.0,69,-99.99,,,-99.99,116.000000,,2013-03-12 14:53:00,
2013-03-12 11:00:00,31.0,25.0,-100.00,SSW,202,9.0,-999.0,77,-99.99,,,-99.99,225.039993,,2013-03-12 15:00:00,
2013-03-12 11:43:00,31.0,25.0,-100.00,SSW,202,9.0,-999.0,77,-99.99,,,-99.99,225.039993,,2013-03-12 15:43:00,
2013-03-12 11:53:00,31.0,25.0,-100.00,SSW,202,9.0,-999.0,77,-99.99,,,-99.99,225.039993,,2013-03-12 15:53:00,
2013-03-12 12:00:00,31.0,25.0,-100.00,South,180,8.0,-999.0,76,-99.99,,,-99.99,175.160004,,2013-03-12 16:00:00,
2013-03-12 12:43:00,31.0,25.0,-100.00,South,180,8.0,-999.0,76,-99.99,,,-99.99,175.160004,,2013-03-12 16:43:00,
2013-03-12 12:53:00,31.0,25.0,-100.00,South,180,8.0,-999.0,76,-99.99,,,-99.99,175.160004,,2013-03-12 16:53:00,
2013-03-12 13:00:00,32.0,25.0,-100.00,South,180,8.0,-999.0,75,-99.99,,,-99.99,163.559998,,2013-03-12 17:00:00,
2013-03-12 13:44:00,32.0,25.0,-100.00,South,180,8.0,-999.0,75,-99.99,,,-99.99,163.559998,,2013-03-12 17:44:00,
2013-03-12 13:53:00,32.0,25.0,-100.00,South,180,8.0,-999.0,75,-99.99,,,-99.99,163.559998,,2013-03-12 17:53:00,
2013-03-12 14:00:00,32.0,25.0,-100.00,South,180,9.0,-999.0,73,-99.99,,,-99.99,170.520004,,2013-03-12 18:00:00,
2013-03-12 14:43:00,32.0,25.0,-100.00,South,180,9.0,-999.0,73,-99.99,,,-99.99,170.520004,,2013-03-12 18:43:00,
2013-03-12 14:53:00,32.0,25.0,-100.00,South,180,9.0,-999.0,73,-99.99,,,-99.99,170.520004,,2013-03-12 18:53:00,
2013-03-12 15:00:00,32.0,24.0,-100.00,SSE,157,10.0,-999.0,72,-99.99,,,-99.99,168.199997,,2013-03-12 19:00:00,
2013-03-12 15:44:00,32.0,24.0,-100.00,SSE,157,10.0,-999.0,72,-99.99,,,-99.99,168.199997,,2013-03-12 19:44:00,
2013-03-12 15:53:00,32.0,24.0,-100.00,SSE,157,10.0,-999.0,72,-99.99,,,-99.99,168.199997,,2013-03-12 19:53:00,
2013-03-12 16:00:00,32.0,23.0,-100.00,SSE,157,9.0,-999.0,69,-99.99,,,-99.99,157.759995,,2013-03-12 20:00:00,
2013-03-12 16:42:00,32.0,23.0,-100.00,SSE,157,9.0,-999.0,69,-99.99,,,-99.99,157.759995,,2013-03-12 20:42:00,
2013-03-12 16:53:00,32.0,23.0,-100.00,SSE,157,9.0,-999.0,69,-99.99,,,-99.99,157.759995,,2013-03-12 20:53:00,
2013-03-12 17:00:00,32.0,23.0,-100.00,SSE,157,9.0,-999.0,68,-99.99,,,-99.99,135.720001,,2013-03-12 21:00:00,
2013-03-12 17:43:00,32.0,23.0,-100.00,SSE,157,9.0,-999.0,68,-99.99,,,-99.99,135.720001,,2013-03-12 21:43:00,
2013-03-12 17:53:00,32.0,23.0,-100.00,SSE,157,9.0,-999.0,68,-99.99,,,-99.99,135.720001,,2013-03-12 21:53:00,
2013-03-12 18:00:00,32.0,22.0,-100.00,South,180,9.0,-999.0,68,-99.99,,,-99.99,93.959999,,2013-03-12 22:00:00,
2013-03-12 18:43:00,32.0,22.0,-100.00,South,180,9.0,-999.0,68,-99.99,,,-99.99,93.959999,,2013-03-12 22:43:00,
2013-03-12 18:53:00,32.0,22.0,-100.00,South,180,9.0,-999.0,68,-99.99,,,-99.99,93.959999,,2013-03-12 22:53:00,
2013-03-12 19:00:00,31.0,23.0,-100.00,South,180,8.0,-999.0,72,-99.99,,,-99.99,53.360001,,2013-03-12 23:00:00,
2013-03-12 19:43:00,31.0,23.0,-100.00,South,180,8.0,-999.0,72,-99.99,,,-99.99,53.360001,,2013-03-12 23:43:00,
2013-03-12 19:52:00,31.0,23.0,-100.00,South,180,8.0,-999.0,72,-99.99,,,-99.99,53.360001,,2013-03-12 23:52:00,
2013-03-12 20:00:00,32.0,23.0,-100.00,South,180,7.0,-999.0,70,-99.99,,,-99.99,9.280000,,2013-03-13 00:00:00,
2013-03-12 20:42:00,32.0,23.0,-100.00,South,180,7.0,-999.0,70,-99.99,,,-99.99,9.280000,,2013-03-13 00:42:00,
2013-03-12 20:53:00,32.0,23.0,-100.00,South,180,7.0,-999.0,70,-99.99,,,-99.99,9.280000,,2013-03-13 00:53:00,
2013-03-12 21:00:00,31.0,25.0,-100.00,SSW,202,7.0,-999.0,81,-99.99,,,-99.99,0.000000,,2013-03-13 01:00:00,
2013-03-12 21:43:00,31.0,25.0,-100.00,SSW,202,7.0,-999.0,81,-99.99,,,-99.99,0.000000,,2013-03-13 01:43:00,
2013-03-12 21:53:00,31.0,25.0,-100.00,SSW,202,7.0,-999.0,81,-99.99,,,-99.99,0.000000,,2013-03-13 01:53:00,
2013-03-12 22:00:00,30.0,25.0,-100.00,SSW,202,5.0,-999.0,81,-99.99,,,-99.99,0.000000,,2013-03-13 02:00:00,
2013-03-12 22:43:00,30.0,25.0,-100.00,SSW,202,5.0,-999.0,81,-99.99,,,-99.99,0.000000,,2013-03-13 02:43:00,
2013-03-12 22:52:00,30.0,25.0,-100.00,SSW,202,5.0,-999.0,81,-99.99,,,-99.99,0.000000,,2013-03-13 02:52:00,
2013-03-12 23:00:00,29.0,25.0,-100.00,SW,225,6.0,-999.0,83,-99.99,,,-99.99,0.000000,,2013-03-13 03:00:00,
2013-03-12 23:42:00,29.0,25.0,-100.00,SW,225,6.0,-999.0,83,-99.99,,,-99.99,0.000000,,2013-03-13 03:42:00,
2013-03-12 23:53:00,29.0,25.0,-100.00,SW,225,6.0,-999.0,83,-99.99,,,-99.99,0.000000,,2013-03-13 03:53:00,